Location: *
(50.3440°N, 18.6237°E)
Time: 18:04:56
(UTC+00:00)

Okean-O - Pass Details

Date: 30 November 2020
Orbit: 639 x 640 km, 98.2° (Epoch: 17 January)

Event Time Altitude Azimuth Distance (km) Brightness Sun altitude
Rises 15:58:55 0° 126° (SE) 2,939 5.7 -11.2°
Reaches altitude 10° 16:01:30 10° 111° (ESE) 2,034 4.8 -11.6°
Maximum altitude 16:04:54 22° 61° (ENE) 1,399 3.8 -12.1°
Drops below altitude 10° 16:08:19 10° 10° (N) 2,046 4.9 -12.6°
Sets 16:10:55 0° 356° (N) 2,960 5.9 -13.0°
